Regional Weather Roundup
Issued by NWS

Home | Current Version | Previous Version | Text Only | Print | Product List | Glossary Off
Versions: 1 2 3 4 5 6 7 8 9 10 11 12 13 14 15 16 17 18 19 20 21 22 23 24 25 26 27 28 29 30 31 32 33 34 35 36 37 38 39 40 41 42 43 44 45 46 47 48 49 50

254
ASUS43 KTOP 200708
RWRKS

WEATHER ROUNDUP FOR KANSAS
NATIONAL WEATHER SERVICE GOODLAND KS
100 AM CST FRI JAN 20 2017

NOTE:  "FAIR" INDICATES FEW OR NO CLOUDS BELOW 12,000 FEET WITH NO
SIGNIFICANT WEATHER AND/OR OBSTRUCTIONS TO VISIBILITY.

KSZ001>006-013>018-027>032-041>047-200800-
NORTHWEST KANSAS

CITY           SKY/WX    TMP DP  RH WIND       PRES   REMARKS
GOODLAND       FOG       32  32 100 W6        29.50F VSB 3/4
HAYS           FOG       41  41 100 E3        29.53F VSB 1/4
HILL CITY      FOG       39  39 100 NE3       29.53F VSB 1/4
RUSSELL        FOG       43  43 100 E5        29.52F VSB 1/4
$$

KSZ061>065-074>080-084>089-200800-
SOUTHWEST KANSAS

CITY           SKY/WX    TMP DP  RH WIND       PRES   REMARKS
DODGE CITY     CLOUDY    30  30 100 CALM      29.51F FOG
ELKHART          N/A     31  27  86 NE2         N/A
GARDEN CITY    CLOUDY    33  32  96 SW5       29.52R
GREAT BEND     FOG       42  42 100 NE7       29.51F VSB 1/4
LIBERAL        CLOUDY    34  28  80 NE3       29.49F
PRATT          FOG       35  35  99 E3        29.51F VSB<1/4
$$

KSZ066>073-081>083-090>101-200800-
SOUTHEAST KANSAS

CITY           SKY/WX    TMP DP  RH WIND       PRES   REMARKS
CHANUTE        CLOUDY    48  45  89 SE7       29.58F
COFFEYVILLE    CLOUDY    48  47  96 SE5       29.59F
HUTCHINSON     FOG       44  43  96 E5        29.54F VSB 1/4
MEDICINE LODGE   N/A     32  32 100 S5        29.51F
NEWTON         FOG       44  44 100 SE7       29.56F VSB 1/2
PARSONS        CLOUDY    50  46  86 S6        29.61S
WICHITA INTL   FOG       43  43 100 NE5       29.54F VSB 1/4
WICHITA JABRA  FOG       42  42 100 E8        29.54F VSB 1/4
WICHITA MCCONL FOG       43  43 100 SE10      29.53F VSB 1/2
WINFIELD       CLOUDY    45  44  97 E7        29.54F
$$

KSZ007>012-019>026-033>040-048>060-102>105-200800-
NORTHEAST KANSAS

CITY           SKY/WX    TMP DP  RH WIND       PRES   REMARKS
CONCORDIA      FOG       41  41 100 S3        29.57F VSB 1/4
EMPORIA        FOG       42  42 100 NE5       29.57F VSB 1/2
LAWRENCE       FOG       45  45 100 CALM      29.60F VSB 1
MANHATTAN      FOG       44  44 100 CALM      29.59R VSB 1/4
MARYSVILLE     FOG       41  41 100 SE3       29.58F VSB 1/4
OLATHE IND     CLOUDY    46  45  96 E5        29.60F FOG
OLATHE EXE     CLOUDY    45  45 100 E5        29.59F FOG
SALINA           N/A    N/A N/A N/A MISG        N/A
TOPEKA BILLARD FOG       45  43  93 CALM      29.59F VSB 1/4
TOPEKA FORBES  FOG       46  45  96 S5        29.59F VSB 3/4
$$




USA.gov is the U.S. government's official web portal to all federal, state and local government web resources and services.